Home   Weather   Stoke-on-Trent   Past weeks

Flag for United Kingdom Past Weather in Stoke-on-Trent, England, United Kingdom — Yesterday and Last 2 Weeks

Now
52 °F

Clear.


Feels Like: 49 °F
Forecast: 47 / 57 °F
Wind: 8 mph from South

Location: Manchester Airport

Current Time: Sep 25, 2016 at 11:31:23 PM

Latest Report: Sep 25, 2016 at 10:50 PM


Visibility: 10 mi

Pressure: 30.04 "Hg

Humidity: 82%

Dew Point: 46 °F

Location of Stoke-on-TrentLocation

Past Weather in Stoke-on-Trent — Graph

°F

Stoke-on-Trent Temperature Yesterday

Maximum temperature yesterday: 66 °F (at 2:20 PM)
Minimum temperature yesterday: 54 °F (at 12:20 AM)
Average temperature yesterday: 61 °F

High & Low Weather Summary for the Past Weeks

 TemperatureHumidityPressure
High79 °F (Sep 14, 2:50 PM)100% (Sep 11, 6:20 AM)30.24 "Hg (Sep 11, 6:20 AM)
Low45 °F (Sep 18, 5:50 AM)52% (Sep 11, 1:50 PM)29.68 "Hg (Sep 25, 1:50 AM)
Average60 °F81%29.99 "Hg
* Reported Sep 10 9:20 PM — Sep 25 9:50 PM, Stoke-on-Trent, Weather by CustomWeather, © 2016

Note: Actual official high and low records may vary slightly from our data, if they occured in-between our weather recording intervals... More about our weather records

Advertising

Stoke-on-Trent Weather History for the Previous 24 Hours

Scroll right to see more
 ConditionsComfort  
Time TempWeatherWind HumidityBarometerVisibility
9:50 PM
Sun, Sep 25
52 °FClear.10 mph82%30.04 "Hg10 mi
8:50 PM54 °FSprinkles. Passing clouds.9 mph77%30.01 "HgN/A
8:20 PM54 °FPassing clouds.9 mph77%30.01 "HgN/A
7:50 PM54 °FPassing clouds.9 mph72%30.01 "HgN/A
7:20 PM55 °FPassing clouds.15 mph67%29.98 "HgN/A
6:50 PM55 °FPassing clouds.13 mph72%29.98 "HgN/A
6:20 PM57 °FPassing clouds.10 mph67%29.98 "HgN/A
5:50 PM59 °FPassing clouds.16 mph59%29.95 "HgN/A
5:20 PM59 °FPassing clouds.16 mph63%29.95 "HgN/A
4:50 PM59 °FPassing clouds.16 mph63%29.95 "HgN/A
4:20 PM59 °FPassing clouds.15 mph68%29.92 "HgN/A
3:50 PM59 °FScattered showers. Passing clouds.13 mph63%29.92 "HgN/A
3:20 PM61 °FScattered showers. Passing clouds.14 mph59%29.92 "HgN/A
2:50 PM61 °FPassing clouds.17 mph55%29.89 "HgN/A
2:20 PM63 °FPassing clouds.16 mph56%29.89 "HgN/A
1:50 PM61 °FPassing clouds.17 mph63%29.89 "HgN/A
1:20 PM61 °FPassing clouds.17 mph68%29.89 "HgN/A
12:50 PM59 °FPassing clouds.15 mph68%29.86 "HgN/A
12:20 PM59 °FPassing clouds.12 mph77%29.86 "HgN/A
11:50 AM55 °FPassing clouds.9 mph88%29.86 "HgN/A
11:20 AM54 °FSprinkles. Scattered clouds.16 mph88%29.83 "HgN/A
10:50 AM55 °FRain showers. Scattered clouds.15 mph88%29.83 "Hg2 mi
10:20 AM57 °FScattered clouds.9 mph82%29.80 "HgN/A
9:50 AM57 °FCool.12 mph88%29.80 "HgN/A
9:20 AM55 °FPassing clouds.12 mph94%29.77 "HgN/A
8:50 AM55 °FScattered showers. Passing clouds.10 mph94%29.77 "HgN/A
8:20 AM55 °FScattered showers. Scattered clouds.13 mph94%29.77 "HgN/A
7:50 AM55 °FPassing clouds.8 mph94%29.74 "HgN/A
7:20 AM55 °FScattered clouds.9 mph94%29.74 "HgN/A
6:50 AM55 °FPassing clouds.9 mph94%29.74 "HgN/A
6:20 AM55 °FClear.9 mph94%29.74 "Hg10 mi
5:50 AM55 °FPassing clouds.9 mph94%29.71 "HgN/A
5:20 AM55 °FLight rain. Passing clouds.9 mph94%29.71 "HgN/A
4:50 AM55 °FPassing clouds.7 mph94%29.71 "HgN/A
4:20 AM55 °FLight rain. Clear.7 mph94%29.71 "HgN/A
3:50 AM55 °FRain. Clear.7 mph100%29.68 "Hg4 mi
3:20 AM55 °FRain. Passing clouds.6 mph94%29.68 "Hg4 mi
2:50 AM55 °FRain. Passing clouds.8 mph94%29.68 "Hg5 mi
2:20 AM59 °FHeavy rain. Partly cloudy.16 mph88%29.71 "Hg2 mi
1:50 AM61 °FRain. Partly cloudy.8 mph94%29.68 "Hg6 mi
1:20 AM61 °FRain. Partly cloudy.8 mph94%29.71 "Hg5 mi
12:50 AM61 °FRain. Partly cloudy.13 mph94%29.71 "Hg3 mi
12:20 AM64 °FLight rain. Passing clouds.18 mph78%29.71 "Hg6 mi
11:50 PM
Sat, Sep 24
64 °FPassing clouds.15 mph78%29.71 "HgN/A
11:20 PM64 °FPassing clouds.16 mph78%29.74 "HgN/A
Weather by CustomWeather, © 2016

See weather overviewHow to use our weather pages